| time (UTC) | temp C | wind direction | speed KPH | gust KPH | rain 1hr cm | rain 24hr cm | rain mn cm | humidity % | barometer mb |
| 20260507114610 | -2 | 65 | 0.0 | 0.0 | 0.00 | 0.00 | 0.00 | 76 | 1014.4 |
| 20260507113057 | -2 | 65 | 0.0 | 0.0 | 0.00 | 0.00 | 0.00 | 76 | 1014.3 |
| 20260507111556 | -2 | 65 | 0.0 | 0.0 | 0.00 | 0.00 | 0.00 | 75 | 1014.4 |
| 20260507104553 | -2 | 65 | 0.0 | 0.0 | 0.00 | 0.00 | 0.00 | 74 | 1014.4 |
| 20260507103052 | -1 | 65 | 0.0 | 0.0 | 0.00 | 0.00 | 0.00 | 74 | 1014.3 |
| 20260507101559 | -1 | 66 | 0.0 | 0.0 | 0.00 | 0.00 | 0.00 | 74 | 1014.3 |
| 20260507100051 | -2 | 66 | 0.0 | 0.0 | 0.00 | 0.00 | 0.00 | 74 | 1014.4 |
| 20260507094555 | -1 | 67 | 0.0 | 3.2 | 0.00 | 0.00 | 0.00 | 73 | 1014.4 |
| 20260507093047 | -1 | 70 | 1.6 | 4.8 | 0.00 | 0.00 | 0.00 | 72 | 1014.4 |
| 20260507091546 | -1 | 65 | 0.0 | 0.0 | 0.00 | 0.00 | 0.00 | 71 | 1014.5 |
| 20260507090045 | -1 | 65 | 0.0 | 0.0 | 0.00 | 0.00 | 0.00 | 71 | 1014.4 |
| 20260507084541 | -1 | 78 | 0.0 | 0.0 | 0.00 | 0.00 | 0.00 | 70 | 1014.5 |
| 20260507083040 | -1 | 79 | 0.0 | 0.0 | 0.00 | 0.00 | 0.00 | 70 | 1014.4 |
| 20260507081545 | 0 | 79 | 0.0 | 0.0 | 0.00 | 0.00 | 0.00 | 69 | 1014.3 |
| 20260507080038 | 0 | 79 | 0.0 | 0.0 | 0.00 | 0.00 | 0.00 | 68 | 1014.3 |
| 20260507074535 | 0 | 79 | 0.0 | 0.0 | 0.00 | 0.00 | 0.00 | 68 | 1014.4 |
| 20260507073033 | 0 | 65 | 0.0 | 0.0 | 0.00 | 0.00 | 0.00 | 67 | 1014.4 |
| 20260507071535 | 0 | 80 | 0.0 | 0.0 | 0.00 | 0.00 | 0.00 | 66 | 1014.5 |
| 20260507070034 | 0 | 69 | 0.0 | 0.0 | 0.00 | 0.00 | 0.00 | 67 | 1014.5 |
| 20260507064537 | 0 | 69 | 0.0 | 0.0 | 0.00 | 0.00 | 0.00 | 66 | 1014.6 |
| 20260507063027 | 0 | 63 | 0.0 | 0.0 | 0.00 | 0.00 | 0.00 | 65 | 1014.6 |
| 20260507061532 | 0 | 59 | 0.0 | 0.0 | 0.00 | 0.00 | 0.00 | 65 | 1014.7 |
| 20260507060023 | 0 | 58 | 0.0 | 0.0 | 0.00 | 0.00 | 0.00 | 64 | 1014.8 |
| 20260507054521 | 1 | 58 | 0.0 | 0.0 | 0.00 | 0.00 | 0.00 | 63 | 1014.8 |
| 20260507053022 | 1 | 58 | 0.0 | 0.0 | 0.00 | 0.00 | 0.00 | 61 | 1014.8 |
| 20260507051517 | 1 | 80 | 0.0 | 0.0 | 0.00 | 0.00 | 0.00 | 60 | 1014.9 |
| 20260507050013 | 2 | 80 | 0.0 | 3.2 | 0.00 | 0.00 | 0.00 | 59 | 1015.1 |
| 20260507044513 | 2 | 59 | 1.6 | 6.4 | 0.00 | 0.00 | 0.00 | 58 | 1015.2 |
| 20260507043012 | 2 | 55 | 3.2 | 6.4 | 0.00 | 0.00 | 0.00 | 57 | 1015.2 |
| 20260507041510 | 2 | 86 | 1.6 | 4.8 | 0.00 | 0.00 | 0.00 | 56 | 1015.3 |
| 20260507040010 | 2 | 84 | 1.6 | 4.8 | 0.00 | 0.00 | 0.00 | 55 | 1015.3 |
| 20260507034511 | 3 | 65 | 3.2 | 8.0 | 0.00 | 0.00 | 0.00 | 54 | 1015.3 |
| 20260507033008 | 3 | 88 | 0.0 | 6.4 | 0.00 | 0.00 | 0.00 | 52 | 1015.5 |
| 20260507031508 | 4 | 71 | 1.6 | 4.8 | 0.00 | 0.00 | 0.00 | 52 | 1015.6 |
| 20260507030010 | 5 | 64 | 0.0 | 0.0 | 0.00 | 0.00 | 0.00 | 51 | 1015.5 |
| 20260507024507 | 5 | 64 | 0.0 | 0.0 | 0.00 | 0.00 | 0.00 | 48 | 1015.5 |
| 20260507023006 | 6 | 59 | 0.0 | 0.0 | 0.00 | 0.00 | 0.00 | 47 | 1015.5 |
| 20260507021506 | 7 | 79 | 0.0 | 3.2 | 0.00 | 0.00 | 0.00 | 44 | 1015.4 |
| 20260507020006 | 7 | 46 | 0.0 | 0.0 | 0.00 | 0.00 | 0.00 | 43 | 1015.3 |
| 20260507014504 | 8 | 28 | 0.0 | 4.8 | 0.00 | 0.00 | 0.00 | 42 | 1015.4 |
| 20260507013006 | 8 | 46 | 1.6 | 8.0 | 0.00 | 0.00 | 0.00 | 40 | 1015.5 |
| 20260507011504 | 9 | 19 | 3.2 | 12.9 | 0.00 | 0.00 | 0.00 | 38 | 1015.6 |
| 20260507010005 | 10 | 19 | 4.8 | 14.5 | 0.00 | 0.00 | 0.00 | 38 | 1015.6 |
| 20260507004502 | 10 | 360 | 8.0 | 16.1 | 0.00 | 0.00 | 0.00 | 35 | 1015.6 |
| 20260507003101 | 10 | 5 | 9.7 | 16.1 | 0.00 | 0.00 | 0.00 | 36 | 1015.7 |
| 20260507001612 | 10 | 342 | 9.7 | 16.1 | 0.00 | 0.00 | 0.00 | 36 | 1015.9 |
| 20260507000059 | 10 | 323 | 4.8 | 17.7 | 0.00 | 0.00 | 0.00 | 36 | 1015.9 |
| 20260506234605 | 10 | 324 | 8.0 | 22.5 | 0.00 | 0.00 | 0.00 | 37 | 1016.0 |
| 20260506233059 | 10 | 315 | 9.7 | 25.7 | 0.00 | 0.00 | 0.00 | 37 | 1016.2 |
| 20260506231556 | 10 | 5 | 6.4 | 20.9 | 0.00 | 0.00 | 0.00 | 37 | 1016.2 |
| 20260506230053 | 10 | 314 | 11.3 | 24.1 | 0.00 | 0.00 | 0.00 | 34 | 1016.4 |
| 20260506224606 | 11 | 345 | 8.0 | 20.9 | 0.00 | 0.00 | 0.00 | 34 | 1016.5 |
| 20260506223054 | 10 | 334 | 6.4 | 17.7 | 0.00 | 0.00 | 0.00 | 39 | 1016.6 |
| 20260506221547 | 10 | 315 | 9.7 | 22.5 | 0.00 | 0.00 | 0.00 | 37 | 1016.8 |
| 20260506220059 | 10 | 350 | 6.4 | 20.9 | 0.00 | 0.00 | 0.00 | 39 | 1016.8 |
| 20260506214544 | 10 | 324 | 14.5 | 24.1 | 0.00 | 0.00 | 0.00 | 38 | 1017.1 |
| 20260506213041 | 10 | 12 | 4.8 | 19.3 | 0.00 | 0.00 | 0.00 | 40 | 1017.2 |
| 20260506211548 | 10 | 304 | 6.4 | 20.9 | 0.00 | 0.00 | 0.00 | 40 | 1017.5 |
| 20260506210038 | 10 | 344 | 9.7 | 22.5 | 0.00 | 0.00 | 0.00 | 39 | 1017.7 |
| 20260506204538 | 10 | 329 | 6.4 | 20.9 | 0.00 | 0.00 | 0.00 | 42 | 1017.9 |
| 20260506203034 | 9 | 277 | 6.4 | 17.7 | 0.00 | 0.00 | 0.00 | 44 | 1018.0 |
| 20260506201533 | 10 | 340 | 16.1 | 27.4 | 0.00 | 0.00 | 0.00 | 42 | 1018.3 |
| 20260506200030 | 8 | 311 | 4.8 | 22.5 | 0.00 | 0.00 | 0.00 | 44 | 1018.5 |
| 20260506194534 | 8 | 316 | 4.8 | 22.5 | 0.00 | 0.00 | 0.00 | 44 | 1018.7 |
| 20260506193027 | 8 | 341 | 9.7 | 33.8 | 0.00 | 0.00 | 0.00 | 47 | 1018.9 |
| 20260506191526 | 8 | 32 | 6.4 | 20.9 | 0.00 | 0.00 | 0.00 | 44 | 1018.9 |
| 20260506190023 | 8 | 355 | 8.0 | 17.7 | 0.00 | 0.00 | 0.00 | 46 | 1019.2 |
| 20260506184519 | 7 | 315 | 3.2 | 19.3 | 0.00 | 0.00 | 0.00 | 50 | 1019.5 |
| 20260506183018 | 7 | 343 | 8.0 | 19.3 | 0.00 | 0.00 | 0.00 | 46 | 1019.8 |
| 20260506181513 | 7 | 350 | 8.0 | 22.5 | 0.00 | 0.00 | 0.00 | 48 | 1020.1 |
| 20260506180011 | 6 | 302 | 8.0 | 22.5 | 0.00 | 0.00 | 0.00 | 47 | 1020.4 |
| 20260506174510 | 6 | 334 | 8.0 | 22.5 | 0.00 | 0.00 | 0.00 | 48 | 1020.5 |
| 20260506173009 | 6 | 19 | 11.3 | 24.1 | 0.00 | 0.00 | 0.00 | 49 | 1020.7 |
| 20260506171507 | 6 | 355 | 6.4 | 22.5 | 0.00 | 0.00 | 0.00 | 50 | 1020.8 |
| 20260506170006 | 5 | 360 | 6.4 | 19.3 | 0.00 | 0.00 | 0.00 | 51 | 1020.9 |
| 20260506164503 | 5 | 298 | 3.2 | 20.9 | 0.00 | 0.00 | 0.00 | 52 | 1021.1 |
| 20260506163001 | 5 | 313 | 8.0 | 17.7 | 0.00 | 0.00 | 0.00 | 52 | 1021.2 |
| 20260506161602 | 5 | 322 | 1.6 | 8.0 | 0.00 | 0.00 | 0.00 | 54 | 1021.5 |
| 20260506160111 | 4 | 258 | 4.8 | 9.7 | 0.00 | 0.00 | 0.00 | 54 | 1021.5 |
| 20260506154559 | 4 | 333 | 3.2 | 16.1 | 0.00 | 0.00 | 0.00 | 52 | 1021.5 |
| 20260506153058 | 4 | 215 | 1.6 | 11.3 | 0.00 | 0.00 | 0.00 | 53 | 1021.5 |
| 20260506151557 | 4 | 291 | 3.2 | 11.3 | 0.00 | 0.00 | 0.00 | 53 | 1021.6 |
| 20260506150054 | 4 | 360 | 3.2 | 11.3 | 0.00 | 0.00 | 0.00 | 54 | 1021.6 |
| 20260506144552 | 3 | 277 | 8.0 | 16.1 | 0.00 | 0.00 | 0.00 | 55 | 1021.6 |
| 20260506143048 | 3 | 310 | 1.6 | 9.7 | 0.00 | 0.00 | 0.00 | 59 | 1021.7 |
| 20260506141545 | 2 | 263 | 1.6 | 6.4 | 0.00 | 0.00 | 0.00 | 60 | 1021.7 |
| 20260506140042 | 2 | 257 | 0.0 | 4.8 | 0.00 | 0.00 | 0.00 | 64 | 1021.7 |
| 20260506134537 | 1 | 253 | 3.2 | 6.4 | 0.00 | 0.00 | 0.00 | 67 | 1021.8 |
| 20260506133034 | 1 | 252 | 1.6 | 4.8 | 0.00 | 0.00 | 0.00 | 69 | 1021.9 |
| 20260506131543 | 0 | 254 | 1.6 | 6.4 | 0.00 | 0.00 | 0.00 | 69 | 1021.9 |
| 20260506130037 | 0 | 276 | 0.0 | 3.2 | 0.00 | 0.00 | 0.00 | 71 | 1021.9 |
| 20260506124526 | 0 | 342 | 0.0 | 0.0 | 0.00 | 0.00 | 0.00 | 72 | 1021.7 |
| 20260506123026 | -1 | 349 | 0.0 | 0.0 | 0.00 | 0.00 | 0.00 | 73 | 1021.6 |
| 20260506121524 | -1 | 349 | 0.0 | 4.8 | 0.00 | 0.00 | 0.00 | 73 | 1021.5 |
| 20260506120024 | -1 | 336 | 0.0 | 0.0 | 0.00 | 0.00 | 0.00 | 74 | 1021.3 |